| time (UTC) | temp F | wind direction | speed MPH | gust MPH | rain 1hr in | rain 24hr in | rain mn in | humidity % | barometer mb |
| 20260901024036 | 76 | 248 | 0.0 | 0.0 | 0.00 | 0.52 | 0.52 | 82 | 1010.7 |
| 20260901023528 | 76 | 248 | 0.0 | 0.0 | 0.00 | 0.52 | 0.52 | 82 | 1010.7 |
| 20260901023011 | 76 | 218 | 0.0 | 0.0 | 0.00 | 0.52 | 0.52 | 82 | 1010.7 |
| 20260901022508 | 76 | 218 | 0.0 | 3.0 | 0.00 | 0.52 | 0.52 | 81 | 1010.7 |
| 20260901022006 | 76 | 218 | 0.0 | 3.0 | 0.00 | 0.52 | 0.52 | 81 | 1010.7 |
| 20260901021810 | 76 | 223 | 0.0 | 3.0 | 0.00 | 0.52 | 0.52 | 81 | 1010.7 |
| 20260901021001 | 76 | 240 | 0.0 | 2.0 | 0.00 | 0.52 | 0.52 | 81 | 1010.7 |
| 20260901020806 | 76 | 265 | 1.0 | 4.0 | 0.00 | 0.52 | 0.52 | 81 | 1010.7 |
| 20260901015949 | 76 | 265 | 1.0 | 4.0 | 0.00 | 0.52 | 0.52 | 80 | 1010.8 |
| 20260901015429 | 76 | 257 | 1.0 | 3.0 | 0.00 | 0.52 | 0.52 | 80 | 1010.8 |
| 20260901014919 | 76 | 256 | 0.0 | 2.0 | 0.00 | 0.52 | 0.52 | 80 | 1010.8 |
| 20260901014412 | 76 | 244 | 0.0 | 2.0 | 0.00 | 0.52 | 0.52 | 80 | 1010.4 |
| 20260901013913 | 76 | 243 | 1.0 | 2.0 | 0.00 | 0.52 | 0.52 | 79 | 1010.4 |
| 20260901013410 | 77 | 196 | 1.0 | 2.0 | 0.00 | 0.52 | 0.52 | 78 | 1010.4 |
| 20260901012905 | 77 | 208 | 1.0 | 2.0 | 0.00 | 0.52 | 0.52 | 78 | 1009.6 |
| 20260901012409 | 77 | 208 | 1.0 | 4.0 | 0.00 | 0.52 | 0.52 | 77 | 1009.6 |
| 20260901011903 | 77 | 208 | 2.0 | 6.0 | 0.00 | 0.52 | 0.52 | 77 | 1009.6 |
| 20260901011401 | 77 | 142 | 2.0 | 6.0 | 0.00 | 0.52 | 0.52 | 77 | 1009.8 |
| 20260901011211 | 77 | 131 | 2.0 | 6.0 | 0.00 | 0.52 | 0.52 | 77 | 1009.8 |
| 20260901010401 | 77 | 201 | 2.0 | 6.0 | 0.00 | 0.52 | 0.52 | 77 | 1009.8 |
| 20260901005900 | 77 | 184 | 1.0 | 6.0 | 0.00 | 0.52 | 0.52 | 77 | 1010.1 |
| 20260901005401 | 77 | 162 | 1.0 | 6.0 | 0.00 | 0.52 | 0.52 | 76 | 1010.1 |
| 20260901004855 | 77 | 205 | 1.0 | 4.0 | 0.00 | 0.52 | 0.52 | 76 | 1010.1 |
| 20260901004354 | 77 | 205 | 1.0 | 5.0 | 0.00 | 0.52 | 0.52 | 76 | 1010.3 |
| 20260901003842 | 77 | 289 | 1.0 | 5.0 | 0.00 | 0.52 | 0.52 | 75 | 1010.3 |
| 20260901003339 | 78 | 201 | 1.0 | 3.0 | 0.00 | 0.52 | 0.52 | 75 | 1010.3 |
| 20260901003142 | 78 | 201 | 0.0 | 3.0 | 0.00 | 0.52 | 0.52 | 75 | 1010.1 |
| 20260901002324 | 78 | 201 | 1.0 | 4.0 | 0.00 | 0.52 | 0.52 | 74 | 1010.1 |
| 20260901001819 | 78 | 201 | 1.0 | 4.0 | 0.00 | 0.52 | 0.52 | 74 | 1010.1 |
| 20260901001321 | 78 | 198 | 1.0 | 4.0 | 0.00 | 0.52 | 0.52 | 73 | 1009.7 |
| 20260901000814 | 78 | 190 | 1.0 | 4.0 | 0.00 | 0.52 | 0.52 | 73 | 1009.7 |
| 20260901000330 | 78 | 203 | 2.0 | 4.0 | 0.00 | 0.52 | 0.52 | 73 | 1009.7 |
| 20260831235754 | 79 | 215 | 2.0 | 5.0 | 0.00 | 0.52 | 0.52 | 72 | 1009.8 |
| 20260831235255 | 79 | 192 | 2.0 | 5.0 | 0.00 | 0.52 | 0.52 | 72 | 1009.8 |
| 20260831234757 | 79 | 213 | 2.0 | 4.0 | 0.00 | 0.52 | 0.52 | 71 | 1009.8 |
| 20260831234253 | 79 | 227 | 2.0 | 4.0 | 0.00 | 0.52 | 0.52 | 71 | 1009.8 |
| 20260831233743 | 79 | 246 | 2.0 | 4.0 | 0.00 | 0.52 | 0.52 | 70 | 1009.8 |
| 20260831233256 | 80 | 275 | 2.0 | 5.0 | 0.00 | 0.52 | 0.52 | 70 | 1009.8 |
| 20260831232741 | 80 | 276 | 2.0 | 7.0 | 0.00 | 0.52 | 0.52 | 69 | 1009.9 |
| 20260831232241 | 80 | 242 | 2.0 | 7.0 | 0.00 | 0.52 | 0.52 | 68 | 1009.9 |
| 20260831231742 | 81 | 254 | 2.0 | 6.0 | 0.00 | 0.52 | 0.52 | 67 | 1010.0 |
| 20260831231240 | 81 | 208 | 3.0 | 11.0 | 0.00 | 0.52 | 0.52 | 66 | 1009.9 |
| 20260831230744 | 81 | 266 | 3.0 | 11.0 | 0.00 | 0.52 | 0.52 | 66 | 1009.9 |
| 20260831230237 | 81 | 258 | 4.0 | 14.0 | 0.00 | 0.52 | 0.52 | 66 | 1009.9 |
| 20260831225733 | 82 | 207 | 4.0 | 14.0 | 0.00 | 0.52 | 0.52 | 65 | 1009.9 |
| 20260831225221 | 82 | 259 | 4.0 | 8.0 | 0.00 | 0.52 | 0.52 | 64 | 1010.0 |
| 20260831224716 | 82 | 257 | 3.0 | 10.0 | 0.00 | 0.52 | 0.52 | 64 | 1010.0 |
| 20260831224218 | 82 | 217 | 4.0 | 10.0 | 0.00 | 0.52 | 0.52 | 63 | 1010.0 |
| 20260831223708 | 82 | 252 | 4.0 | 11.0 | 0.00 | 0.52 | 0.52 | 63 | 1010.0 |
| 20260831223206 | 83 | 282 | 5.0 | 11.0 | 0.00 | 0.52 | 0.52 | 62 | 1010.0 |
| 20260831222707 | 83 | 255 | 4.0 | 13.0 | 0.00 | 0.52 | 0.52 | 62 | 1010.0 |
| 20260831222527 | 83 | 246 | 4.0 | 13.0 | 0.00 | 0.52 | 0.52 | 62 | 1010.0 |
| 20260831221707 | 83 | 198 | 5.0 | 12.0 | 0.00 | 0.52 | 0.52 | 62 | 1010.0 |
| 20260831221202 | 83 | 163 | 4.0 | 11.0 | 0.00 | 0.52 | 0.52 | 62 | 1010.0 |
| 20260831220901 | 83 | 284 | 4.0 | 11.0 | 0.00 | 0.52 | 0.52 | 62 | 1010.1 |
| 20260831220814 | 83 | 247 | 3.0 | 11.0 | 0.00 | 0.52 | 0.52 | 61 | 1010.1 |
| 20260831215702 | 83 | 212 | 4.0 | 11.0 | 0.00 | 0.52 | 0.52 | 62 | 1009.9 |
| 20260831215204 | 84 | 202 | 4.0 | 13.0 | 0.00 | 0.52 | 0.52 | 62 | 1009.9 |
| 20260831214700 | 84 | 232 | 5.0 | 13.0 | 0.00 | 0.52 | 0.52 | 61 | 1009.9 |
| 20260831214200 | 84 | 254 | 4.0 | 13.0 | 0.00 | 0.52 | 0.52 | 61 | 1009.8 |
| 20260831213659 | 84 | 205 | 3.0 | 12.0 | 0.00 | 0.52 | 0.52 | 61 | 1009.8 |
| 20260831213522 | 84 | 252 | 4.0 | 11.0 | 0.00 | 0.52 | 0.52 | 62 | 1009.8 |
| 20260831212653 | 84 | 194 | 4.0 | 14.0 | 0.00 | 0.52 | 0.52 | 61 | 1009.7 |
| 20260831212152 | 84 | 207 | 4.0 | 9.0 | 0.00 | 0.52 | 0.52 | 62 | 1009.7 |
| 20260831211650 | 84 | 239 | 4.0 | 10.0 | 0.00 | 0.52 | 0.52 | 61 | 1009.7 |
| 20260831211150 | 84 | 258 | 5.0 | 12.0 | 0.00 | 0.52 | 0.52 | 62 | 1009.7 |
| 20260831210646 | 84 | 251 | 6.0 | 12.0 | 0.00 | 0.52 | 0.52 | 61 | 1009.7 |
| 20260831210147 | 84 | 219 | 5.0 | 11.0 | 0.00 | 0.52 | 0.52 | 62 | 1009.7 |
| 20260831205641 | 84 | 267 | 5.0 | 12.0 | 0.00 | 0.52 | 0.52 | 62 | 1009.6 |
| 20260831205134 | 84 | 250 | 5.0 | 15.0 | 0.00 | 0.52 | 0.52 | 61 | 1009.6 |
| 20260831205004 | 85 | 219 | 5.0 | 15.0 | 0.00 | 0.52 | 0.52 | 61 | 1009.6 |
| 20260831204131 | 85 | 241 | 4.0 | 11.0 | 0.00 | 0.52 | 0.52 | 61 | 1009.6 |
| 20260831203611 | 85 | 196 | 5.0 | 12.0 | 0.00 | 0.52 | 0.52 | 62 | 1009.5 |
| 20260831203116 | 84 | 215 | 6.0 | 12.0 | 0.00 | 0.52 | 0.52 | 63 | 1009.5 |
| 20260831202611 | 84 | 203 | 6.0 | 14.0 | 0.00 | 0.52 | 0.52 | 63 | 1009.7 |
| 20260831202108 | 84 | 191 | 5.0 | 14.0 | 0.00 | 0.52 | 0.52 | 63 | 1009.7 |
| 20260831201610 | 84 | 190 | 5.0 | 11.0 | 0.00 | 0.52 | 0.52 | 64 | 1009.7 |
| 20260831201109 | 84 | 177 | 5.0 | 11.0 | 0.00 | 0.52 | 0.52 | 64 | 1009.8 |
| 20260831200620 | 84 | 199 | 5.0 | 11.0 | 0.00 | 0.52 | 0.52 | 63 | 1009.8 |
| 20260831200439 | 84 | 187 | 5.0 | 11.0 | 0.00 | 0.52 | 0.52 | 62 | 1009.8 |
| 20260831195617 | 84 | 183 | 4.0 | 8.0 | 0.00 | 0.52 | 0.52 | 64 | 1010.0 |
| 20260831195104 | 83 | 82 | 5.0 | 10.0 | 0.00 | 0.52 | 0.52 | 63 | 1010.0 |
| 20260831194608 | 84 | 232 | 4.0 | 10.0 | 0.00 | 0.52 | 0.52 | 62 | 1010.0 |
| 20260831194103 | 84 | 171 | 4.0 | 11.0 | 0.00 | 0.52 | 0.52 | 63 | 1010.1 |
| 20260831193602 | 83 | 201 | 4.0 | 17.0 | 0.00 | 0.52 | 0.52 | 64 | 1010.0 |
| 20260831193433 | 84 | 187 | 4.0 | 17.0 | 0.00 | 0.52 | 0.52 | 63 | 1010.1 |
| 20260831192930 | 84 | 209 | 4.0 | 12.0 | 0.00 | 0.52 | 0.52 | 65 | 1010.4 |
| 20260831192059 | 83 | 169 | 5.0 | 12.0 | 0.00 | 0.52 | 0.52 | 65 | 1010.4 |
| 20260831191601 | 83 | 265 | 4.0 | 11.0 | 0.00 | 0.52 | 0.52 | 65 | 1010.4 |
| 20260831191101 | 84 | 220 | 4.0 | 11.0 | 0.00 | 0.52 | 0.52 | 65 | 1010.6 |
| 20260831190601 | 84 | 132 | 5.0 | 11.0 | 0.00 | 0.52 | 0.52 | 65 | 1010.6 |
| 20260831190107 | 84 | 210 | 5.0 | 11.0 | 0.00 | 0.52 | 0.52 | 64 | 1010.6 |
| 20260831185604 | 84 | 217 | 5.0 | 11.0 | 0.00 | 0.52 | 0.52 | 64 | 1010.8 |
| 20260831185059 | 84 | 229 | 4.0 | 14.0 | 0.00 | 0.52 | 0.52 | 64 | 1010.8 |
| 20260831184559 | 84 | 194 | 4.0 | 14.0 | 0.00 | 0.52 | 0.52 | 64 | 1010.8 |
| 20260831184055 | 84 | 238 | 5.0 | 11.0 | 0.00 | 0.52 | 0.52 | 67 | 1010.8 |
| 20260831183555 | 84 | 265 | 5.0 | 14.0 | 0.00 | 0.52 | 0.52 | 67 | 1010.8 |
| 20260831183423 | 83 | 188 | 5.0 | 14.0 | 0.00 | 0.52 | 0.52 | 69 | 1010.7 |
| 20260831182554 | 83 | 238 | 4.0 | 11.0 | 0.00 | 0.52 | 0.52 | 71 | 1011.0 |
| 20260831182053 | 82 | 163 | 4.0 | 11.0 | 0.00 | 0.52 | 0.52 | 71 | 1011.0 |
| 20260831181553 | 82 | 213 | 4.0 | 9.0 | 0.00 | 0.52 | 0.52 | 72 | 1010.9 |
| 20260831181052 | 81 | 200 | 5.0 | 8.0 | 0.00 | 0.52 | 0.52 | 72 | 1011.1 |
| 20260831180554 | 81 | 177 | 4.0 | 11.0 | 0.00 | 0.52 | 0.52 | 74 | 1011.1 |
| 20260831180104 | 81 | 236 | 4.0 | 11.0 | 0.00 | 0.52 | 0.52 | 73 | 1011.1 |
| 20260831175547 | 80 | 167 | 5.0 | 12.0 | 0.00 | 0.52 | 0.52 | 75 | 1011.1 |
| 20260831175044 | 80 | 184 | 5.0 | 12.0 | 0.00 | 0.52 | 0.52 | 74 | 1011.1 |
| 20260831174543 | 80 | 225 | 4.0 | 11.0 | 0.00 | 0.52 | 0.52 | 75 | 1011.1 |
| 20260831174043 | 80 | 211 | 4.0 | 11.0 | 0.00 | 0.52 | 0.52 | 75 | 1011.5 |
| 20260831173538 | 79 | 253 | 4.0 | 9.0 | 0.00 | 0.52 | 0.52 | 77 | 1011.5 |
| 20260831173413 | 79 | 182 | 3.0 | 9.0 | 0.00 | 0.52 | 0.52 | 76 | 1011.5 |
| 20260831172539 | 79 | 119 | 2.0 | 5.0 | 0.00 | 0.52 | 0.52 | 78 | 1011.4 |
| 20260831172213 | 79 | 229 | 4.0 | 12.0 | 0.00 | 0.52 | 0.52 | 80 | 1011.3 |
| 20260831172128 | 79 | 205 | 3.0 | 8.0 | 0.00 | 0.52 | 0.52 | 80 | 1011.4 |
| 20260831171354 | 78 | 165 | 5.0 | 12.0 | 0.00 | 0.52 | 0.52 | 80 | 1011.3 |
| 20260831170514 | 78 | 205 | 5.0 | 10.0 | 0.00 | 0.52 | 0.52 | 80 | 1011.3 |
| 20260831170339 | 78 | 227 | 4.0 | 9.0 | 0.00 | 0.52 | 0.52 | 81 | 1011.3 |
| 20260831165516 | 77 | 135 | 4.0 | 7.0 | 0.00 | 0.52 | 0.52 | 82 | 1011.4 |
| 20260831165012 | 77 | 215 | 4.0 | 10.0 | 0.00 | 0.52 | 0.52 | 84 | 1011.4 |
| 20260831164850 | 76 | 223 | 4.0 | 10.0 | 0.00 | 0.52 | 0.52 | 85 | 1011.5 |
| 20260831164009 | 76 | 221 | 4.0 | 9.0 | 0.00 | 0.52 | 0.52 | 85 | 1011.5 |
| 20260831163510 | 75 | 153 | 4.0 | 9.0 | 0.00 | 0.52 | 0.52 | 86 | 1011.5 |
| 20260831163013 | 75 | 162 | 4.0 | 8.0 | 0.00 | 0.52 | 0.52 | 87 | 1011.5 |
| 20260831162511 | 75 | 178 | 4.0 | 8.0 | 0.00 | 0.52 | 0.52 | 86 | 1011.6 |
| 20260831162010 | 75 | 213 | 4.0 | 9.0 | 0.00 | 0.52 | 0.52 | 86 | 1011.7 |
| 20260831161824 | 75 | 224 | 4.0 | 9.0 | 0.00 | 0.52 | 0.52 | 88 | 1011.6 |
| 20260831161011 | 74 | 188 | 4.0 | 8.0 | 0.00 | 0.52 | 0.52 | 89 | 1011.8 |
| 20260831160510 | 74 | 184 | 3.0 | 8.0 | 0.00 | 0.52 | 0.52 | 90 | 1011.8 |
| 20260831160014 | 74 | 167 | 3.0 | 7.0 | 0.00 | 0.52 | 0.52 | 92 | 1011.8 |
| 20260831155509 | 73 | 166 | 3.0 | 7.0 | 0.00 | 0.52 | 0.52 | 92 | 1012.0 |
| 20260831155009 | 72 | 116 | 2.0 | 6.0 | 0.00 | 0.52 | 0.52 | 94 | 1012.0 |
| 20260831154820 | 72 | 130 | 3.0 | 7.0 | 0.00 | 0.52 | 0.52 | 94 | 1012.1 |
| 20260831154004 | 71 | 236 | 4.0 | 7.0 | 0.00 | 0.52 | 0.52 | 94 | 1012.1 |
| 20260831153505 | 71 | 115 | 3.0 | 7.0 | 0.00 | 0.52 | 0.52 | 94 | 1012.1 |
| 20260831153326 | 71 | 236 | 4.0 | 8.0 | 0.00 | 0.52 | 0.52 | 94 | 1012.1 |
| 20260831152458 | 71 | 148 | 4.0 | 8.0 | 0.00 | 0.52 | 0.52 | 95 | 1012.1 |
| 20260831151959 | 71 | 119 | 3.0 | 7.0 | 0.00 | 0.52 | 0.52 | 96 | 1012.1 |
| 20260831151502 | 71 | 158 | 3.0 | 7.0 | 0.00 | 0.52 | 0.52 | 96 | 1012.0 |
| 20260831150957 | 70 | 158 | 3.0 | 7.0 | 0.00 | 0.52 | 0.52 | 96 | 1012.0 |
| 20260831150457 | 70 | 130 | 2.0 | 7.0 | 0.00 | 0.52 | 0.52 | 96 | 1012.0 |
| 20260831145956 | 70 | 162 | 1.0 | 5.0 | 0.00 | 0.52 | 0.52 | 96 | 1011.7 |
| 20260831145457 | 70 | 126 | 2.0 | 5.0 | 0.01 | 0.52 | 0.52 | 97 | 1011.7 |
| 20260831144957 | 69 | 166 | 3.0 | 6.0 | 0.04 | 0.52 | 0.52 | 96 | 1011.7 |
| 20260831144456 | 69 | 173 | 3.0 | 6.0 | 0.14 | 0.52 | 0.52 | 96 | 1012.0 |
| 20260831143954 | 69 | 159 | 3.0 | 6.0 | 0.19 | 0.52 | 0.52 | 96 | 1012.0 |
| 20260831143456 | 69 | 190 | 3.0 | 6.0 | 0.19 | 0.52 | 0.52 | 96 | 1012.0 |
| 20260831142952 | 69 | 178 | 3.0 | 8.0 | 0.19 | 0.52 | 0.52 | 97 | 1012.0 |
| 20260831142452 | 69 | 105 | 3.0 | 8.0 | 0.19 | 0.52 | 0.52 | 96 | 1011.9 |
| 20260831141954 | 69 | 168 | 2.0 | 6.0 | 0.19 | 0.52 | 0.52 | 96 | 1011.9 |
| 20260831141449 | 69 | 200 | 2.0 | 6.0 | 0.19 | 0.52 | 0.52 | 96 | 1012.0 |
| 20260831141311 | 69 | 206 | 2.0 | 6.0 | 0.21 | 0.52 | 0.52 | 96 | 1012.0 |
| 20260831140450 | 69 | 134 | 2.0 | 6.0 | 0.24 | 0.52 | 0.52 | 96 | 1012.0 |
| 20260831140314 | 69 | 150 | 3.0 | 7.0 | 0.24 | 0.52 | 0.52 | 96 | 1012.2 |
| 20260831135815 | 69 | 154 | 3.0 | 7.0 | 0.23 | 0.51 | 0.52 | 96 | 1012.2 |
| 20260831134952 | 69 | 151 | 3.0 | 6.0 | 0.20 | 0.47 | 0.47 | 96 | 1012.2 |
| 20260831134452 | 69 | 107 | 2.0 | 5.0 | 0.15 | 0.38 | 0.40 | 96 | 1012.1 |
| 20260831133952 | 69 | 190 | 2.0 | 7.0 | 0.16 | 0.33 | 0.33 | 96 | 1012.1 |
| 20260831133440 | 69 | 168 | 3.0 | 7.0 | 0.19 | 0.33 | 0.33 | 96 | 1012.1 |
| 20260831132941 | 69 | 132 | 2.0 | 6.0 | 0.23 | 0.33 | 0.33 | 96 | 1012.5 |
| 20260831132432 | 68 | 153 | 2.0 | 6.0 | 0.29 | 0.33 | 0.33 | 96 | 1012.5 |
| 20260831131933 | 68 | 98 | 2.0 | 6.0 | 0.33 | 0.33 | 0.33 | 96 | 1012.5 |
| 20260831131423 | 68 | 101 | 2.0 | 7.0 | 0.32 | 0.32 | 0.33 | 96 | 1012.9 |
| 20260831130918 | 68 | 155 | 1.0 | 7.0 | 0.31 | 0.33 | 0.31 | 96 | 1012.9 |
| 20260831130415 | 68 | 197 | 1.0 | 4.0 | 0.28 | 0.39 | 0.28 | 96 | 1012.9 |
| 20260831125917 | 68 | 129 | 3.0 | 7.0 | 0.28 | 0.39 | 0.28 | 96 | 1013.3 |
| 20260831125731 | 68 | 121 | 4.0 | 7.0 | 0.27 | 0.38 | 0.28 | 96 | 1013.3 |
| 20260831125236 | 68 | 155 | 2.0 | 6.0 | 0.26 | 0.37 | 0.27 | 96 | 1013.3 |
| 20260831124411 | 68 | 183 | 0.0 | 2.0 | 0.23 | 0.35 | 0.23 | 96 | 1013.8 |
| 20260831123912 | 68 | 182 | 1.0 | 5.0 | 0.16 | 0.28 | 0.16 | 96 | 1013.8 |
| 20260831123412 | 68 | 182 | 1.0 | 5.0 | 0.14 | 0.26 | 0.14 | 96 | 1013.8 |
| 20260831122912 | 68 | 248 | 2.0 | 8.0 | 0.10 | 0.22 | 0.10 | 96 | 1013.0 |
| 20260831122406 | 68 | 289 | 2.0 | 8.0 | 0.04 | 0.16 | 0.05 | 96 | 1013.0 |
| 20260831122222 | 68 | 196 | 1.0 | 2.0 | 0.00 | 0.12 | 0.00 | 95 | 1012.9 |
| 20260831121401 | 68 | 193 | 1.0 | 4.0 | 0.00 | 0.12 | 0.00 | 96 | 1011.5 |
| 20260831120859 | 68 | 158 | 1.0 | 4.0 | 0.00 | 0.12 | 0.00 | 95 | 1011.5 |
| 20260831120356 | 68 | 138 | 1.0 | 4.0 | 0.00 | 0.12 | 0.00 | 95 | 1011.5 |
| 20260831115858 | 68 | 138 | 0.0 | 4.0 | 0.00 | 0.12 | 0.00 | 96 | 1011.3 |
| 20260831115410 | 68 | 126 | 0.0 | 2.0 | 0.00 | 0.12 | 0.00 | 96 | 1011.3 |
| 20260831114855 | 68 | 124 | 1.0 | 4.0 | 0.00 | 0.12 | 0.00 | 96 | 1011.3 |
| 20260831114352 | 68 | 124 | 1.0 | 4.0 | 0.00 | 0.12 | 0.00 | 96 | 1011.3 |
| 20260831113908 | 68 | 136 | 1.0 | 4.0 | 0.00 | 0.12 | 0.00 | 96 | 1011.3 |
| 20260831113343 | 68 | 150 | 0.0 | 2.0 | 0.00 | 0.13 | 0.00 | 96 | 1011.3 |
| 20260831112845 | 68 | 150 | 0.0 | 2.0 | 0.00 | 0.13 | 0.00 | 96 | 1011.4 |
| 20260831112339 | 68 | 150 | 0.0 | 2.0 | 0.00 | 0.13 | 0.00 | 96 | 1011.4 |
| 20260831111841 | 68 | 150 | 1.0 | 2.0 | 0.00 | 0.13 | 0.00 | 96 | 1011.4 |
| 20260831111628 | 68 | 150 | 1.0 | 2.0 | 0.00 | 0.13 | 0.00 | 96 | 1011.4 |
| 20260831110812 | 68 | 150 | 0.0 | 1.0 | 0.00 | 0.13 | 0.00 | 96 | 1011.4 |
| 20260831110309 | 68 | 150 | 0.0 | 2.0 | 0.00 | 0.13 | 0.00 | 96 | 1011.4 |
| 20260831105809 | 68 | 150 | 1.0 | 2.0 | 0.00 | 0.13 | 0.00 | 96 | 1011.5 |
| 20260831105624 | 68 | 150 | 1.0 | 2.0 | 0.00 | 0.13 | 0.00 | 96 | 1011.5 |
| 20260831105117 | 68 | 150 | 0.0 | 1.0 | 0.00 | 0.13 | 0.00 | 96 | 1011.5 |
| 20260831104430 | 68 | 150 | 0.0 | 1.0 | 0.00 | 0.13 | 0.00 | 96 | 1011.5 |
| 20260831104352 | 68 | 150 | 0.0 | 1.0 | 0.00 | 0.13 | 0.00 | 96 | 1011.5 |
| 20260831103256 | 68 | 150 | 0.0 | 1.0 | 0.00 | 0.14 | 0.00 | 96 | 1011.5 |
| 20260831103111 | 68 | 150 | 1.0 | 2.0 | 0.00 | 0.15 | 0.00 | 96 | 1011.6 |
| 20260831102256 | 68 | 150 | 1.0 | 2.0 | 0.00 | 0.15 | 0.00 | 96 | 1011.6 |
| 20260831101755 | 68 | 150 | 1.0 | 2.0 | 0.00 | 0.16 | 0.00 | 96 | 1011.6 |
| 20260831101254 | 68 | 150 | 1.0 | 4.0 | 0.00 | 0.16 | 0.00 | 95 | 1012.0 |
| 20260831100755 | 68 | 150 | 1.0 | 4.0 | 0.00 | 0.16 | 0.00 | 96 | 1012.0 |
| 20260831100252 | 68 | 166 | 0.0 | 1.0 | 0.00 | 0.16 | 0.00 | 95 | 1012.0 |
| 20260831100059 | 68 | 166 | 0.0 | 0.0 | 0.00 | 0.17 | 0.00 | 95 | 1012.0 |
| 20260831095244 | 68 | 166 | 0.0 | 0.0 | 0.00 | 0.17 | 0.00 | 95 | 1012.0 |
| 20260831095048 | 68 | 166 | 0.0 | 0.0 | 0.00 | 0.17 | 0.00 | 95 | 1012.0 |
| 20260831094220 | 68 | 166 | 0.0 | 0.0 | 0.00 | 0.18 | 0.00 | 95 | 1012.0 |
| 20260831093717 | 68 | 166 | 0.0 | 0.0 | 0.00 | 0.19 | 0.00 | 95 | 1012.0 |
| 20260831093146 | 68 | 166 | 0.0 | 0.0 | 0.00 | 0.19 | 0.00 | 95 | 1012.1 |
| 20260831092630 | 68 | 166 | 0.0 | 0.0 | 0.00 | 0.19 | 0.00 | 95 | 1012.0 |
| 20260831092437 | 68 | 166 | 0.0 | 0.0 | 0.00 | 0.19 | 0.00 | 95 | 1012.0 |
| 20260831091616 | 68 | 166 | 0.0 | 0.0 | 0.00 | 0.19 | 0.00 | 95 | 1012.0 |
| 20260831091120 | 68 | 166 | 0.0 | 0.0 | 0.00 | 0.20 | 0.00 | 95 | 1012.3 |
| 20260831090613 | 68 | 166 | 0.0 | 0.0 | 0.00 | 0.20 | 0.00 | 95 | 1012.3 |
| 20260831090120 | 68 | 166 | 0.0 | 0.0 | 0.00 | 0.23 | 0.00 | 95 | 1012.3 |
| 20260831085605 | 68 | 166 | 0.0 | 0.0 | 0.00 | 0.24 | 0.00 | 95 | 1012.3 |
| 20260831085416 | 68 | 166 | 0.0 | 0.0 | 0.00 | 0.25 | 0.00 | 95 | 1012.3 |
| 20260831084603 | 68 | 166 | 0.0 | 0.0 | 0.00 | 0.25 | 0.00 | 95 | 1012.3 |
| 20260831084058 | 68 | 166 | 0.0 | 0.0 | 0.00 | 0.26 | 0.00 | 95 | 1012.1 |
| 20260831083554 | 68 | 166 | 0.0 | 0.0 | 0.00 | 0.28 | 0.00 | 95 | 1012.1 |
| 20260831083049 | 68 | 166 | 0.0 | 0.0 | 0.00 | 0.28 | 0.00 | 95 | 1012.1 |
| 20260831082514 | 68 | 166 | 0.0 | 0.0 | 0.00 | 0.28 | 0.00 | 95 | 1012.2 |
| 20260831082006 | 68 | 166 | 0.0 | 0.0 | 0.00 | 0.28 | 0.00 | 95 | 1012.2 |
| 20260831081620 | 69 | 166 | 0.0 | 0.0 | 0.00 | 0.28 | 0.00 | 95 | 1012.4 |
| 20260831081554 | 68 | 166 | 0.0 | 0.0 | 0.00 | 0.28 | 0.00 | 95 | 1012.4 |
| 20260831080609 | 69 | 166 | 0.0 | 0.0 | 0.00 | 0.28 | 0.00 | 95 | 1012.1 |
| 20260831080542 | 69 | 166 | 0.0 | 0.0 | 0.00 | 0.28 | 0.00 | 95 | 1012.4 |
| 20260831075456 | 69 | 166 | 0.0 | 0.0 | 0.00 | 0.28 | 0.00 | 95 | 1012.1 |
| 20260831074946 | 69 | 166 | 0.0 | 0.0 | 0.00 | 0.28 | 0.00 | 95 | 1012.1 |
| 20260831074446 | 69 | 166 | 0.0 | 0.0 | 0.00 | 0.28 | 0.00 | 95 | 1012.1 |
| 20260831073942 | 68 | 166 | 0.0 | 0.0 | 0.00 | 0.28 | 0.00 | 94 | 1012.1 |
| 20260831073445 | 68 | 166 | 0.0 | 0.0 | 0.00 | 0.28 | 0.00 | 94 | 1012.1 |
| 20260831072940 | 69 | 166 | 0.0 | 0.0 | 0.00 | 0.28 | 0.00 | 94 | 1012.0 |
| 20260831072434 | 69 | 166 | 0.0 | 0.0 | 0.00 | 0.28 | 0.00 | 94 | 1012.0 |
| 20260831071918 | 69 | 166 | 0.0 | 0.0 | 0.00 | 0.28 | 0.00 | 94 | 1012.0 |
| 20260831071709 | 69 | 166 | 0.0 | 0.0 | 0.00 | 0.28 | 0.00 | 94 | 1012.0 |
| 20260831071205 | 69 | 166 | 0.0 | 0.0 | 0.00 | 0.28 | 0.00 | 94 | 1012.0 |
| 20260831070408 | 69 | 166 | 0.0 | 0.0 | 0.00 | 0.28 | 0.00 | 94 | 1012.0 |
| 20260831065902 | 69 | 166 | 0.0 | 0.0 | 0.00 | 0.28 | 0.00 | 93 | 1012.1 |
| 20260831065659 | 69 | 166 | 0.0 | 0.0 | 0.00 | 0.28 | 0.00 | 93 | 1012.1 |
| 20260831065157 | 69 | 166 | 0.0 | 0.0 | 0.00 | 0.28 | 0.00 | 94 | 1012.2 |
| 20260831064353 | 69 | 166 | 0.0 | 0.0 | 0.00 | 0.28 | 0.00 | 94 | 1012.1 |
| 20260831064008 | 69 | 166 | 0.0 | 0.0 | 0.00 | 0.28 | 0.00 | 93 | 1012.1 |
| 20260831063942 | 69 | 166 | 0.0 | 0.0 | 0.00 | 0.28 | 0.00 | 93 | 1012.1 |
| 20260831062841 | 70 | 166 | 0.0 | 0.0 | 0.00 | 0.28 | 0.00 | 93 | 1012.6 |
| 20260831062313 | 70 | 166 | 0.0 | 0.0 | 0.00 | 0.28 | 0.00 | 93 | 1012.6 |
| 20260831061817 | 70 | 166 | 0.0 | 0.0 | 0.00 | 0.28 | 0.00 | 93 | 1012.6 |
| 20260831061304 | 70 | 166 | 0.0 | 0.0 | 0.00 | 0.28 | 0.00 | 93 | 1012.4 |
| 20260831060800 | 70 | 166 | 0.0 | 0.0 | 0.00 | 0.28 | 0.00 | 93 | 1012.4 |
| 20260831060302 | 70 | 166 | 0.0 | 0.0 | 0.00 | 0.28 | 0.00 | 93 | 1012.4 |
| 20260831055749 | 70 | 166 | 0.0 | 0.0 | 0.00 | 0.28 | 0.00 | 93 | 1012.4 |
| 20260831055231 | 70 | 166 | 0.0 | 0.0 | 0.00 | 0.28 | 0.00 | 93 | 1012.4 |
| 20260831054719 | 70 | 166 | 0.0 | 0.0 | 0.00 | 0.28 | 0.00 | 93 | 1012.4 |
| 20260831054212 | 70 | 194 | 0.0 | 0.0 | 0.00 | 0.28 | 0.00 | 93 | 1012.5 |
| 20260831053704 | 70 | 194 | 1.0 | 4.0 | 0.00 | 0.28 | 0.00 | 93 | 1012.5 |
| 20260831053515 | 70 | 194 | 1.0 | 4.0 | 0.00 | 0.28 | 0.00 | 93 | 1012.5 |
| 20260831052656 | 70 | 148 | 1.0 | 2.0 | 0.00 | 0.28 | 0.00 | 93 | 1012.7 |
| 20260831052145 | 70 | 192 | 1.0 | 4.0 | 0.00 | 0.28 | 0.00 | 93 | 1012.7 |
| 20260831051643 | 70 | 192 | 1.0 | 4.0 | 0.00 | 0.30 | 0.00 | 93 | 1012.7 |
| 20260831051142 | 70 | 186 | 0.0 | 2.0 | 0.00 | 0.30 | 0.00 | 93 | 1012.6 |
| 20260831050655 | 69 | 186 | 0.0 | 3.0 | 0.00 | 0.30 | 0.00 | 93 | 1012.5 |
| 20260831050142 | 69 | 186 | 0.0 | 3.0 | 0.00 | 0.30 | 0.00 | 93 | 1012.5 |
| 20260831045640 | 69 | 186 | 0.0 | 2.0 | 0.00 | 0.30 | 0.00 | 93 | 1012.4 |
| 20260831045111 | 69 | 186 | 1.0 | 2.0 | 0.00 | 0.30 | 0.00 | 93 | 1012.4 |
| 20260831044606 | 69 | 186 | 1.0 | 4.0 | 0.00 | 0.30 | 0.00 | 92 | 1012.3 |
| 20260831044120 | 69 | 186 | 1.0 | 4.0 | 0.00 | 0.30 | 0.00 | 92 | 1012.3 |
| 20260831044038 | 70 | 182 | 2.0 | 4.0 | 0.00 | 0.30 | 0.00 | 92 | 1012.3 |
| 20260831044034 | 70 | 194 | 1.0 | 4.0 | 0.00 | 0.30 | 0.00 | 92 | 1012.3 |
| 20260831042607 | 70 | 198 | 1.0 | 4.0 | 0.00 | 0.30 | 0.00 | 92 | 1012.6 |
| 20260831042052 | 70 | 146 | 1.0 | 4.0 | 0.00 | 0.30 | 0.00 | 92 | 1012.6 |
| 20260831041652 | 70 | 157 | 1.0 | 2.0 | 0.00 | 0.30 | 0.00 | 92 | 1012.6 |
| 20260831041044 | 70 | 183 | 1.0 | 2.0 | 0.00 | 0.30 | 0.00 | 92 | 1012.6 |
| 20260831040546 | 70 | 182 | 0.0 | 2.0 | 0.00 | 0.30 | 0.00 | 92 | 1012.6 |
| 20260831040015 | 70 | 183 | 0.0 | 2.0 | 0.00 | 0.30 | 0.00 | 91 | 1012.6 |
| 20260831035514 | 70 | 183 | 0.0 | 0.0 | 0.00 | 0.30 | 0.30 | 91 | 1012.5 |
| 20260831035312 | 70 | 183 | 0.0 | 0.0 | 0.00 | 0.30 | 0.30 | 91 | 1012.5 |
| 20260831034503 | 70 | 183 | 0.0 | 0.0 | 0.00 | 0.30 | 0.30 | 91 | 1012.7 |
| 20260831033958 | 70 | 183 | 0.0 | 0.0 | 0.00 | 0.30 | 0.30 | 91 | 1012.7 |
| 20260831033458 | 70 | 183 | 0.0 | 0.0 | 0.00 | 0.30 | 0.30 | 91 | 1012.7 |
| 20260831032950 | 70 | 183 | 0.0 | 0.0 | 0.00 | 0.30 | 0.30 | 90 | 1012.8 |
| 20260831032442 | 70 | 183 | 0.0 | 0.0 | 0.00 | 0.30 | 0.30 | 90 | 1012.8 |
| 20260831031940 | 70 | 183 | 0.0 | 0.0 | 0.00 | 0.30 | 0.30 | 90 | 1012.8 |
| 20260831031436 | 70 | 183 | 0.0 | 0.0 | 0.00 | 0.30 | 0.30 | 90 | 1012.7 |
| 20260831030934 | 71 | 183 | 0.0 | 0.0 | 0.00 | 0.30 | 0.30 | 90 | 1012.7 |
| 20260831030423 | 71 | 183 | 0.0 | 0.0 | 0.00 | 0.30 | 0.30 | 90 | 1012.7 |
| 20260831030225 | 71 | 183 | 0.0 | 0.0 | 0.00 | 0.30 | 0.30 | 90 | 1012.8 |
| 20260831025724 | 71 | 183 | 0.0 | 0.0 | 0.00 | 0.30 | 0.30 | 89 | 1012.8 |
| 20260831024909 | 71 | 183 | 0.0 | 0.0 | 0.00 | 0.30 | 0.30 | 89 | 1012.8 |
| 20260831024404 | 71 | 183 | 0.0 | 2.0 | 0.00 | 0.30 | 0.30 | 89 | 1012.7 |